Location: Newark
(50.4348°N, 30.5552°E)
Time: 05:01:24
(UTC+00:00)

Envisat - Pass Details

Date: 11 December 2019
Orbit: 764 x 766 km, 98.1° (Epoch: 20 January)

Event Time Altitude Azimuth Distance (km) Brightness Sun altitude
Rises 16:59:58 0° 204° (SSW) 3,223 6.6 -28.4°
Reaches altitude 10° 17:02:47 10° 220° (SW) 2,302 5.9 -28.8°
Maximum altitude 17:06:38 22° 270° (W) 1,654 5.4 -29.4°
Drops below altitude 10° 17:10:30 10° 319° (NW) 2,315 5.9 -30.0°
Sets 17:13:22 0° 335° (NNW) 3,247 6.5 -30.5°
